User: anonymous   Login
Location: Laguna de la Cañada del Gallo
(40.3974°N, 5.2096°W)
Time: 20:45:48
(UTC+00:00)
Language:

Cosmos 1898 Rocket - Orbit

View from above orbital plane
View from above orbital plane
View from above satellite
View from above satellite

Ground track
Ground track

The orbit data is extracted from the following two-line orbital elements,

1 18586U 87098B   24165.57361606  .00000381  00000-0  13556-3 0  9997
2 18586  74.0066 271.7679 0019756  84.2494 276.0911 14.37624385913812
Epoch (UTC): 13 June 2024 13:46:00
Eccentricity: 0.0019756
inclination: 74.0066°
perigee height: 752 km
apogee height: 780 km
right ascension of ascending node: 271.7679°
argument of perigee: 84.2494°
revolutions per day: 14.37624385
mean anomaly at epoch: 276.0911°
orbit number at epoch: 91381

The dashed part of the orbit path shows where the satellite is in the earth's shadow,  

DLR